Adelaide, Australia

8:34 PM ACDT on February 22, 2018 (GMT +1030)
Adelaide International

Weather History for YPAD - May, 2013

Change the Weather History Date:

Tuesday, May 7, 2013

  Actual Average Record
Temperature  
Mean Temperature 66 °F -  
Max Temperature 80 °F 64 °F 82 °F (2002)
Min Temperature 53 °F 48 °F 42 °F (2004)
Cooling Degree Days 2    
Growing Degree Days 16 (Base 50)    
Moisture  
Dew Point 44 °F    
Average Humidity 45    
Maximum Humidity 67    
Minimum Humidity 19    
Precipitation  
Precipitation 0.00 in 0.07 in - ()
Sea Level Pressure  
Sea Level Pressure 30.10 in    
Wind  
Wind Speed 7 mph ()    
Max Wind Speed 12 mph    
Max Gust Speed -    
Visibility 19.0 miles    
Events      
Averages and records for this station are not official NWS values.
T = Trace of Precipitation, MM = Missing Value Source: Averaged Metar Reports

Daily Weather History Graph

Daily Weather History Graph

Search for Another Location

Airport or City:

Trip Planner

Search our weather history database for the weather conditions in past years. The results will help you decide how hot, cold, wet, or windy it might be!

Date:

Astronomy

May. 07, 2013 Rise Set
Actual Time 6:56 AM ACST 5:27 PM ACST
Civil Twilight 6:30 AM ACST 5:54 PM ACST
Nautical Twilight 6:00 AM ACST 6:24 PM ACST
Astronomical Twilight 5:30 AM ACST 6:54 PM ACST
Moon 4:05 AM ACST (5/7) 3:42 PM ACST (5/7)
Length of Visible Light 11h 24m
Length of Day
10h 31m
Waning Crescent, 8% of the Moon is Illuminated
May 7
Waning Crescent
May 10
New
May 18
First Quarter
May 25
Full
Jun 1
Last Quarter

Hourly Weather History & Observations

Time (ACST) Temp. Dew Point Humidity Pressure Visibility Wind Dir Wind Speed Gust Speed Precip Events Conditions
12:00 AM 59 °F 40 °F 38% 30.09 in 19 mi NE 9.2 mph - -   Partly Cloudy
12:00 AM 59.0 °F 41.0 °F 51% 30.06 in - NE 9.2 mph - N/A   Clear
12:30 AM 58 °F 40 °F 40% 30.09 in - NE 9.2 mph - -  
12:30 AM 57.2 °F 41.0 °F 55% 30.06 in - NE 9.2 mph - N/A   Clear
1:00 AM 57.2 °F 42.8 °F 59% 30.06 in - NE 8.1 mph - N/A   Clear
1:30 AM 55.4 °F 42.8 °F 63% 30.06 in - NE 8.1 mph - N/A   Clear
2:00 AM 57.2 °F 41.0 °F 55% 30.06 in - NE 9.2 mph - N/A   Clear
2:30 AM 57.2 °F 42.8 °F 59% 30.06 in - NE 8.1 mph - N/A   Clear
3:00 AM 58 °F 41 °F 43% 30.08 in 19 mi NE 9.2 mph - -   Partly Cloudy
3:00 AM 57.2 °F 41.0 °F 55% 30.06 in - NE 9.2 mph - N/A   Clear
3:30 AM 57 °F 41 °F 44% 30.07 in - NE 8.1 mph - -  
3:30 AM 57.2 °F 41.0 °F 55% 30.06 in - NE 8.1 mph - N/A   Clear
4:00 AM 55.4 °F 42.8 °F 63% 30.06 in - NE 8.1 mph - N/A   Clear
4:30 AM 57.2 °F 41.0 °F 55% 30.06 in - ENE 5.8 mph - N/A   Clear
5:00 AM 55.4 °F 42.8 °F 63% 30.06 in - ENE 4.6 mph - N/A   Clear
5:30 AM 55.4 °F 42.8 °F 63% 30.06 in - NE 5.8 mph - N/A   Clear
6:00 AM 55 °F 44 °F 56% 30.09 in 19 mi NE 5.8 mph - -   Partly Cloudy
6:00 AM 55.4 °F 44.6 °F 67% 30.09 in - NE 5.8 mph - N/A   Clear
6:30 AM 55.4 °F 44.6 °F 67% 30.09 in - NE 6.9 mph - N/A   Clear
7:00 AM 57.2 °F 44.6 °F 63% 30.09 in - NE 8.1 mph - N/A   Clear
7:30 AM 59.0 °F 44.6 °F 59% 30.12 in - NE 6.9 mph - N/A   Clear
8:00 AM 62.6 °F 44.6 °F 52% 30.12 in - ENE 5.8 mph - N/A   Clear
8:30 AM 66.2 °F 46.4 °F 49% 30.12 in - NE 6.9 mph - N/A   Clear
9:00 AM 69 °F 46 °F 32% 30.15 in 22 mi NNE 8.1 mph - -   Partly Cloudy
9:00 AM 69.8 °F 46.4 °F 43% 30.12 in - NNE 8.1 mph - N/A   Clear
9:30 AM 71 °F 44 °F 27% 30.16 in - NNE 9.2 mph - -  
9:30 AM 69.8 °F 44.6 °F 40% 30.15 in - NNE 9.2 mph - N/A   Clear
10:00 AM 71.6 °F 42.8 °F 35% 30.15 in - North 9.2 mph - N/A   Clear
10:30 AM 73.4 °F 44.6 °F 36% 30.12 in - North 10.4 mph - N/A   Clear
11:00 AM 75.2 °F 44.6 °F 34% 30.12 in - North 6.9 mph - N/A   Clear
11:30 AM 75.2 °F 44.6 °F 34% 30.12 in - North 8.1 mph - N/A   Clear
12:00 PM 76 °F 43 °F 20% 30.13 in 25 mi NNW 9.2 mph - -   Partly Cloudy
12:00 PM 77.0 °F 42.8 °F 29% 30.12 in - NNW 9.2 mph - N/A   Clear
12:30 PM 77 °F 44 °F 20% 30.10 in - NNW 9.2 mph - -  
12:30 PM 77.0 °F 42.8 °F 29% 30.09 in - NNW 9.2 mph - N/A   Clear
1:30 PM 78.8 °F 44.6 °F 30% 30.09 in - NNW 9.2 mph - N/A   Clear
2:00 PM 78.8 °F 42.8 °F 28% 30.06 in - NNW 8.1 mph - N/A   Clear
3:00 PM 80 °F 45 °F 19% 30.08 in 25 mi North 4.6 mph - -   Partly Cloudy
4:00 PM 80.6 °F 44.6 °F 28% 30.06 in - NNE 5.8 mph - N/A   Clear
4:30 PM 80.6 °F 42.8 °F 26% 30.06 in - NNE 4.6 mph - N/A   Clear
5:00 PM 77.0 °F 46.4 °F 34% 30.06 in - North 4.6 mph - N/A   Clear
5:30 PM 71.6 °F 44.6 °F 38% 30.06 in - North 4.6 mph - N/A   Clear
6:00 PM 71 °F 46 °F 29% 30.10 in 25 mi NE 4.6 mph - -   Partly Cloudy
6:00 PM 69.8 °F 46.4 °F 43% 30.09 in - NE 4.6 mph - N/A   Clear
6:30 PM 69 °F 48 °F 36% 30.11 in - East 2.3 mph - -  
6:30 PM 69.8 °F 48.2 °F 46% 30.09 in - East 2.3 mph - N/A   Clear
7:00 PM 66.2 °F 48.2 °F 52% 30.09 in - East 1.2 mph - N/A   Clear
7:30 PM 66.2 °F 48.2 °F 52% 30.12 in - ENE 4.6 mph - N/A   Clear
8:00 PM 64.4 °F 48.2 °F 56% 30.12 in - NE 5.8 mph - N/A   Clear
8:30 PM 62.6 °F 48.2 °F 59% 30.12 in - ENE 5.8 mph - N/A   Clear
9:00 PM 64 °F 48 °F 46% 30.14 in 25 mi Calm Calm - -   Partly Cloudy
9:00 PM 64.4 °F 48.2 °F 56% 30.12 in - Calm Calm - N/A   Clear
9:30 PM 62 °F 48 °F 49% 30.14 in - NNE 4.6 mph - -  
9:30 PM 62.6 °F 48.2 °F 59% 30.12 in - NNE 4.6 mph - N/A   Clear
10:00 PM 64.4 °F 46.4 °F 52% 30.12 in - NE 11.5 mph - N/A   Clear
10:30 PM 68.0 °F 44.6 °F 43% 30.12 in - NE 11.5 mph - N/A   Clear
11:00 PM 66.2 °F 42.8 °F 43% 30.12 in - NE 11.5 mph - N/A   Clear
11:30 PM 66.2 °F 42.8 °F 43% 30.12 in - NE 11.5 mph - N/A   Clear